Location: Nitra
(0.0000°N, 18.0833°E)
Time: 07:50:53
(UTC+02:00)

LAPAN A2 - Visible Passes

Search period start: 03 June 2023 00:00
Search period end: 13 June 2023 00:00
Orbit: 629 x 647 km, 6.0° (Epoch: 02 June)

Date Brightness Start Highest point End Pass type
(mag) Time Alt. Az. Time Alt. Az. Time Alt. Az.
03 Jun ? 05:20:15 26° WNW 05:22:32 49° N 05:27:05 10° E visible
03 Jun ? 19:13:14 10° W 19:18:01 75° S 19:22:46 10° E visible
03 Jun ? 20:57:39 10° W 21:00:31 36° W 21:00:31 36° W visible
04 Jun ? 04:03:30 16° ENE 04:03:30 16° ENE 04:04:37 10° ENE visible
04 Jun ? 05:40:52 16° WNW 05:44:33 57° N 05:49:11 10° E visible
04 Jun ? 19:35:14 10° W 19:40:01 89° NNW 19:43:50 16° E visible
04 Jun ? 21:19:42 10° W 21:21:12 20° W 21:21:12 20° W visible
05 Jun ? 04:24:09 30° ENE 04:24:09 30° ENE 04:26:44 10° E visible
05 Jun ? 06:01:54 10° WNW 06:06:34 69° N 06:11:16 10° E visible
05 Jun ? 19:57:15 10° W 20:02:02 74° N 20:04:32 28° ENE visible
05 Jun ? 21:41:48 10° W 21:41:54 11° W 21:41:54 11° W visible
06 Jun ? 04:44:48 53° NE 04:44:48 53° NE 04:48:50 10° E visible
06 Jun ? 20:19:19 10° W 20:24:03 61° N 20:25:12 46° NE visible
07 Jun ? 05:05:28 57° NW 05:06:14 70° N 05:10:54 10° E visible
07 Jun ? 20:41:25 10° W 20:45:52 51° NNW 20:45:52 51° NNW visible
08 Jun ? 05:26:09 33° W 05:28:14 84° N 05:32:56 10° E visible
08 Jun ? 19:18:56 10° W 19:23:40 61° N 19:28:23 10° ENE visible
08 Jun ? 21:03:31 10° WNW 21:06:32 33° NW 21:06:32 33° NW visible
09 Jun ? 04:09:27 17° E 04:09:27 17° E 04:10:33 10° E visible
09 Jun ? 05:46:50 18° W 05:50:14 80° S 05:54:57 10° E visible
09 Jun ? 19:41:01 10° W 19:45:41 52° N 19:49:47 13° ENE visible
09 Jun ? 21:25:38 10° WNW 21:27:10 19° WNW 21:27:10 19° WNW visible
10 Jun ? 04:30:08 31° E 04:30:08 31° E 04:32:35 10° E visible
10 Jun ? 06:07:35 10° W 06:12:15 66° S 06:16:55 10° ESE visible
10 Jun ? 20:03:07 10° WNW 20:07:43 45° N 20:10:24 22° ENE visible
10 Jun ? 21:47:43 10° WNW 21:47:47 10° WNW 21:47:47 10° WNW visible
11 Jun ? 04:50:48 57° ESE 04:50:48 57° ESE 04:54:35 10° E visible
11 Jun ? 20:25:14 10° WNW 20:29:45 41° N 20:31:00 34° NE visible
12 Jun ? 05:11:28 61° SW 05:11:54 65° S 05:16:33 10° ESE visible
12 Jun ? 20:47:19 10° WNW 20:51:34 39° N 20:51:34 39° N visible
